Weather History for West Palm Beach, FL

Change the Weather History Date:

Monday, March 17, 2014

  Actual Average Record
Temperature  
Mean Temperature 79 °F 70 °F  
Max Temperature 85 °F 79 °F 90 °F (2001)
Min Temperature 73 °F 62 °F 38 °F (1890)
Degree Days  
Heating Degree Days 0 1  
Month to date heating degree days 2 17  
Since 1 July heating degree days 117 222  
Cooling Degree Days 14 6  
Month to date cooling degree days 107 100  
Year to date cooling degree days 453 335  
Growing Degree Days 28 (Base 50)    
Moisture  
Dew Point 68 °F    
Average Humidity 70    
Maximum Humidity 84    
Minimum Humidity 55    
Precipitation  
Precipitation T in 0.16 in 2.21 in (2001)
Month to date precipitation 0.44 2.46  
Year to date precipitation 11.92 8.41  
Snow  
Snow 0.00 in - - ()
Month to date snowfall 0.0  
Since 1 July snowfall 0.0  
Snow Depth 0.00 in    
Sea Level Pressure  
Sea Level Pressure 29.78 in    
Wind  
Wind Speed 13 mph (South)    
Max Wind Speed 22 mph    
Max Gust Speed 27 mph    
Visibility 10 miles    
Events      
T = Trace of Precipitation, MM = Missing Value Source: NWS Daily Summary

Daily Weather History Graph

Daily Weather History Graph

Search for Another Location

Airport:

Trip Planner

Search our weather history database for the weather conditions in past years. The results will help you decide how hot, cold, wet, or windy it might be!

Date:

Astronomy

Mar. 17, 2014 Rise Set
Actual Time 7:27 AM EDT 7:30 PM EDT
Civil Twilight 7:04 AM EDT 7:53 PM EDT
Nautical Twilight 6:37 AM EDT 8:20 PM EDT
Astronomical Twilight 6:10 AM EDT 8:47 PM EDT
Moon 8:35 PM EDT (3/17) 7:49 AM EDT (3/17)
Length of Visible Light 12h 48m
Length of Day
12h 02m
Full, 99% of the Moon is Illuminated
Mar 17
Full
Mar 23
Last Quarter
Mar 30
New
Apr 7
First Quarter
Apr 15
Full

Hourly Weather History & Observations

Time (EDT) Temp. Heat Index Dew Point Humidity Pressure Visibility Wind Dir Wind Speed Gust Speed Precip Events Conditions
12:53 AM 73.9 °F - 64.0 °F 71% 29.84 in 10.0 mi South 10.4 mph - N/A   Clear
1:53 AM 73.9 °F - 66.0 °F 76% 29.83 in 10.0 mi South 12.7 mph - N/A   Partly Cloudy
2:53 AM 73.9 °F - 66.0 °F 76% 29.81 in 10.0 mi South 12.7 mph - N/A   Clear
3:53 AM 73.9 °F - 66.9 °F 79% 29.77 in 10.0 mi South 11.5 mph - N/A   Scattered Clouds
4:53 AM 73.9 °F - 66.9 °F 79% 29.76 in 10.0 mi South 12.7 mph - N/A   Mostly Cloudy
5:53 AM 73.9 °F - 66.9 °F 79% 29.77 in 10.0 mi South 9.2 mph - N/A   Scattered Clouds
6:53 AM 73.0 °F - 68.0 °F 84% 29.78 in 10.0 mi South 9.2 mph - N/A   Mostly Cloudy
7:53 AM 73.9 °F - 68.0 °F 82% 29.80 in 10.0 mi South 6.9 mph - N/A   Mostly Cloudy
8:53 AM 75.9 °F - 69.1 °F 79% 29.81 in 10.0 mi South 9.2 mph - N/A   Mostly Cloudy
9:53 AM 79.0 °F - 68.0 °F 69% 29.81 in 10.0 mi South 10.4 mph - N/A   Mostly Cloudy
10:53 AM 82.0 °F 84.5 °F 66.9 °F 60% 29.82 in 10.0 mi South 17.3 mph 24.2 mph N/A   Mostly Cloudy
11:53 AM 84.0 °F 86.3 °F 66.0 °F 55% 29.82 in 10.0 mi SSW 19.6 mph 26.5 mph N/A   Mostly Cloudy
12:53 PM 82.9 °F 86.5 °F 69.1 °F 63% 29.80 in 10.0 mi SSE 16.1 mph 24.2 mph 0.00 in   Mostly Cloudy
1:53 PM 82.9 °F 86.5 °F 69.1 °F 63% 29.77 in 10.0 mi SSE 18.4 mph 25.3 mph 0.00 in   Mostly Cloudy
2:53 PM 82.9 °F 87.0 °F 70.0 °F 65% 29.75 in 10.0 mi South 15.0 mph - N/A   Mostly Cloudy
3:53 PM 82.0 °F 85.9 °F 70.0 °F 67% 29.73 in 10.0 mi SSE 15.0 mph 23.0 mph N/A   Overcast
4:53 PM 82.0 °F 85.9 °F 70.0 °F 67% 29.74 in 10.0 mi South 13.8 mph - N/A   Overcast
5:53 PM 81.0 °F 84.4 °F 70.0 °F 69% 29.74 in 10.0 mi South 10.4 mph - N/A   Overcast
6:53 PM 80.1 °F 83.2 °F 70.0 °F 71% 29.73 in 10.0 mi South 11.5 mph - N/A   Overcast
7:53 PM 79.0 °F - 70.0 °F 74% 29.75 in 10.0 mi South 9.2 mph - N/A   Mostly Cloudy
8:53 PM 78.1 °F - 70.0 °F 76% 29.75 in 10.0 mi SSE 10.4 mph - N/A   Overcast
9:53 PM 78.1 °F - 70.0 °F 76% 29.75 in 10.0 mi South 12.7 mph 23.0 mph N/A   Overcast
10:53 PM 78.1 °F - 71.1 °F 79% 29.76 in 10.0 mi South 15.0 mph 23.0 mph N/A   Overcast
11:53 PM 78.1 °F - 72.0 °F 81% 29.75 in 10.0 mi South 11.5 mph - N/A   Overcast